Terminal Aerodrome Forecast
Issued by NWS

Home | Current Version | Previous Version | Text Only | Print | Product List | Glossary On
Versions: 1 2 3 4 5 6 7 8 9 10 11 12 13 14 15 16 17 18 19 20 21
000
FTAK31 PAJN 030231 AAA
TAFAKT
TAF AMD
PAKT 030231Z 0303/0324 13006KT P6SM VCSH BKN080
     FM030500 32005KT P6SM SCT100
     FM031200 VRB03KT P6SM SCT100
     FM032000 33008KT P6SM FEW150
      AMD LTD TO CLD VIS AND WIND 0306/0315=

USA.gov is the U.S. government's official web portal to all federal, state and local government web resources and services.